THOR ABLESTAR R/B, 1428

Orbit data source: Space-Track

THOR ABLESTAR R/B, 1428 is space debris in LEO originally from a launch on Thu, 24 Jun 1965 UTC launched from the Air Force Western Test Range (AFWTR). Debris objects in space refer to the collection of defunct objects orbiting the Earth. Examples of debris include non-operational satellites, rocket bodies, and fragments generated from explosions, collisions, or faulty payload assembly.

Loading next visibility...
Identifier
1428, 1965-048B
Orbit
LEO
Country
Flag of USUS
Related business
Manufacturer
Aerojet
Mission
Spacecraft
Bus & Motor
ABLESTAR, Unknown motor
Mass
~600 kg wet, 600 kg dry
Launch date (UTC)
1965-06-24 (60 years ago)
Launch vehicle
Unknown
Launch site
Air Force Western Test Range (AFWTR)
Object type
Payload
Rocket body
Debris
Shape & HBR
Unknown
Radar Cross Section
Large (>1 m²)

Expand to show TLE details & history
Last TLE update: 9 hours ago

TLE from 9 hours ago
0 THOR ABLESTAR R/B
1 01428U 65048B   25340.63625976  .00000074  00000-0  96355-4 0  9999
2 01428  89.8792 287.4284 0057645  20.8729 152.2774 13.52673001982612
Epoch: 2025-12-06T15:16Z
TLE epoch observation values (Epoch: 2025-12-06T15:16:12.843Z)
Latitude
6.46804°
Longitude
162.70011°
Altitude
1,102.821 km
Speed
7.283 km/s
True Right ascension
07h 09m 39s
True Declination
6° 25' 53"
Sunlit
Object was in full shadow at epoch
Visualization orbit readout
Latitude
Unknown
Longitude
Unknown
Altitude
Unknown
Speed
Unknown
Apparent Right ascension
Unknown
Apparent Declination
Unknown
Sunlit
N/A
Visualization observer readout
Local Sidereal Time
22:08:35
Azimuth
Unknown
Elevation
Unknown
Doppler factor
Unknown
Orbital elements
Apogee altitude
1,102.36 km
Perigee altitude
1,016.612 km
Semi-major axis
7,437.623 km
Eccentricity
0.00576
Inclination
89.8792°
RAAN
287.4284°
Arg. of periapsis
20.8729°
True anomaly
152.58274°
Mean anomaly
152.2774°
Eccentric anomaly
152.43026°
Mean motion
3.3837 °/min
Orbital period
106.39 mins
BSTAR
0.000096355
Loading maneuver chart data...
Computing Atmospheric mass density...

Documentation

Showing up to 5 results
|